• In Hungary
  • List of Countries
  • For 7 days
  • Water Temperature
  • Satellite Maps
  • Weather Map
  • News
  • Weather Widgets
  • user-avatar
    Login

    Hourly Weather Churapanovo

    Today, 19 July, Thursday

    Time Temperature Precipitation Wind Pressure Humidity
    00:00 +18°C° 0.1 mm 3 mps 747 mmHg 92%
    01:00 +18°C° 0.1 mm 3 mps 747 mmHg 92%
    02:00 +18°C° 0 mm 3 mps 747 mmHg 92%
    03:00 +18°C° 0 mm 3 mps 747 mmHg 93%
    04:00 +17°C° 0 mm 3 mps 747 mmHg 93%
    05:00 +18°C° 0 mm 3 mps 747 mmHg 92%
    06:00 +19°C° 0 mm 3 mps 747 mmHg 90%
    07:00 +20°C° 0 mm 3 mps 747 mmHg 88%
    08:00 +21°C° 0 mm 3 mps 748 mmHg 84%
    09:00 +24°C° 0 mm 3 mps 748 mmHg 80%
    10:00 +25°C° 0 mm 3 mps 748 mmHg 76%
    11:00 +26°C° 1 mm 3 mps 748 mmHg 75%
    12:00 +26°C° 1 mm 3 mps 748 mmHg 74%
    13:00 +27°C° 1 mm 3 mps 748 mmHg 72%
    14:00 +27°C° 1.3 mm 2 mps 748 mmHg 73%
    15:00 +27°C° 1.3 mm 2 mps 748 mmHg 74%
    16:00 +27°C° 1.3 mm 2 mps 748 mmHg 75%
    17:00 +26°C° 0.3 mm 2 mps 748 mmHg 78%
    18:00 +26°C° 0.3 mm 2 mps 748 mmHg 82%
    19:00 +25°C° 0.3 mm 2 mps 748 mmHg 85%
    20:00 +24°C° 0.5 mm 2 mps 748 mmHg 88%
    21:00 +21°C° 0.5 mm 2 mps 748 mmHg 90%
    22:00 +20°C° 0.5 mm 2 mps 748 mmHg 93%
    23:00 +20°C° 0.1 mm 2 mps 748 mmHg 94%

    Tomorrow, 20 July, Friday

    Time Temperature Precipitation Wind Pressure Humidity
    00:00 +19°C° 0.1 mm 2 mps 748 mmHg 94%
    01:00 +19°C° 0.1 mm 2 mps 748 mmHg 95%
    02:00 +18°C° 0 mm 2 mps 749 mmHg 95%
    03:00 +18°C° 0 mm 2 mps 749 mmHg 96%
    04:00 +18°C° 0 mm 2 mps 749 mmHg 96%
    05:00 +19°C° 0 mm 2 mps 749 mmHg 95%
    06:00 +20°C° 0 mm 2 mps 749 mmHg 94%
    07:00 +21°C° 0 mm 3 mps 749 mmHg 93%
    08:00 +22°C° 0.3 mm 3 mps 749 mmHg 89%
    09:00 +24°C° 0.3 mm 3 mps 749 mmHg 86%
    10:00 +25°C° 0.3 mm 3 mps 750 mmHg 82%
    11:00 +26°C° 1 mm 3 mps 750 mmHg 82%
    12:00 +26°C° 1 mm 3 mps 750 mmHg 81%
    13:00 +26°C° 1 mm 4 mps 750 mmHg 81%
    14:00 +26°C° 0.5 mm 4 mps 750 mmHg 81%
    15:00 +26°C° 0.5 mm 4 mps 750 mmHg 81%
    16:00 +26°C° 0.5 mm 4 mps 750 mmHg 80%
    17:00 +26°C° 0.6 mm 4 mps 750 mmHg 83%
    18:00 +25°C° 0.6 mm 4 mps 750 mmHg 85%
    19:00 +23°C° 0.6 mm 4 mps 750 mmHg 87%
    20:00 +22°C° 0 mm 4 mps 750 mmHg 88%
    21:00 +21°C° 0 mm 4 mps 751 mmHg 89%
    22:00 +20°C° 0 mm 4 mps 751 mmHg 90%
    23:00 +20°C° 0 mm 5 mps 751 mmHg 91%

    Day after tomorrow, 21 July, Saturday

    Time Temperature Precipitation Wind Pressure Humidity
    00:00 +19°C° 0 mm 5 mps 751 mmHg 91%
    01:00 +19°C° 0 mm 5 mps 751 mmHg 91%
    02:00 +19°C° 0.1 mm 5 mps 751 mmHg 91%
    03:00 +19°C° 0.1 mm 5 mps 751 mmHg 91%
    04:00 +19°C° 0.1 mm 5 mps 751 mmHg 91%
    05:00 +19°C° 0 mm 5 mps 752 mmHg 90%
    06:00 +20°C° 0 mm 5 mps 752 mmHg 88%
    07:00 +20°C° 0 mm 6 mps 752 mmHg 87%
    08:00 +21°C° 0 mm 6 mps 752 mmHg 82%
    09:00 +22°C° 0 mm 6 mps 752 mmHg 78%
    10:00 +24°C° 0 mm 6 mps 752 mmHg 73%
    11:00 +24°C° 0 mm 6 mps 752 mmHg 70%
    12:00 +26°C° 0 mm 6 mps 752 mmHg 66%
    13:00 +27°C° 0 mm 7 mps 752 mmHg 63%
    14:00 +27°C° 0.1 mm 6 mps 752 mmHg 64%
    15:00 +27°C° 0.1 mm 6 mps 752 mmHg 65%
    16:00 +27°C° 0.1 mm 5 mps 752 mmHg 66%
    17:00 +26°C° 0.1 mm 5 mps 752 mmHg 69%
    18:00 +25°C° 0.1 mm 5 mps 752 mmHg 72%
    19:00 +23°C° 0.1 mm 5 mps 752 mmHg 75%
    20:00 +22°C° 0 mm 5 mps 752 mmHg 74%
    21:00 +21°C° 0 mm 5 mps 753 mmHg 74%
    22:00 +20°C° 0 mm 5 mps 753 mmHg 73%
    23:00 +20°C° 0 mm 5 mps 753 mmHg 72%

    22 July, Sunday

    Time Temperature Precipitation Wind Pressure Humidity
    00:00 +19°C° 0 mm 5 mps 753 mmHg 71%
    01:00 +17°C° 0 mm 5 mps 753 mmHg 70%
    02:00 +17°C° 0 mm 5 mps 753 mmHg 71%
    03:00 +16°C° 0 mm 5 mps 753 mmHg 73%
    04:00 +16°C° 0 mm 5 mps 753 mmHg 75%
    05:00 +16°C° 0 mm 5 mps 754 mmHg 77%
    06:00 +17°C° 0 mm 6 mps 754 mmHg 78%
    07:00 +17°C° 0 mm 6 mps 754 mmHg 80%
    08:00 +19°C° 0 mm 6 mps 754 mmHg 75%
    09:00 +20°C° 0 mm 7 mps 754 mmHg 69%
    10:00 +22°C° 0 mm 7 mps 754 mmHg 64%
    11:00 +22°C° 0 mm 7 mps 754 mmHg 61%
    12:00 +23°C° 0 mm 7 mps 754 mmHg 58%
    13:00 +24°C° 0 mm 7 mps 754 mmHg 55%
    14:00 +24°C° 0 mm 6 mps 754 mmHg 56%
    15:00 +24°C° 0 mm 6 mps 754 mmHg 57%
    16:00 +25°C° 0 mm 5 mps 753 mmHg 58%
    17:00 +23°C° 0 mm 5 mps 754 mmHg 61%
    18:00 +21°C° 0 mm 5 mps 754 mmHg 64%
    19:00 +20°C° 0 mm 5 mps 754 mmHg 68%
    20:00 +19°C° 0 mm 5 mps 754 mmHg 66%
    21:00 +17°C° 0 mm 5 mps 754 mmHg 65%
    22:00 +16°C° 0 mm 5 mps 755 mmHg 63%
    23:00 +15°C° 0 mm 5 mps 755 mmHg 65%

    23 July, Monday

    Time Temperature Precipitation Wind Pressure Humidity
    00:00 +15°C° 0 mm 5 mps 755 mmHg 68%
    01:00 +14°C° 0 mm 4 mps 755 mmHg 70%
    02:00 +13°C° 0 mm 4 mps 755 mmHg 72%
    03:00 +12°C° 0 mm 4 mps 756 mmHg 75%
    04:00 +12°C° 0 mm 4 mps 756 mmHg 77%
    05:00 +13°C° 0 mm 4 mps 756 mmHg 77%
    06:00 +13°C° 0 mm 4 mps 756 mmHg 76%
    07:00 +14°C° 0 mm 5 mps 756 mmHg 75%
    08:00 +16°C° 0 mm 5 mps 756 mmHg 70%
    09:00 +17°C° 0 mm 5 mps 756 mmHg 65%
    10:00 +20°C° 0 mm 5 mps 756 mmHg 59%
    11:00 +21°C° 0 mm 5 mps 756 mmHg 57%
    12:00 +22°C° 0 mm 5 mps 756 mmHg 55%
    13:00 +23°C° 0 mm 5 mps 756 mmHg 53%
    14:00 +23°C° 0 mm 4 mps 755 mmHg 54%
    15:00 +23°C° 0 mm 4 mps 755 mmHg 54%
    16:00 +25°C° 0 mm 4 mps 755 mmHg 55%
    17:00 +23°C° 0 mm 4 mps 755 mmHg 60%
    18:00 +22°C° 0 mm 3 mps 755 mmHg 65%
    19:00 +21°C° 0 mm 3 mps 755 mmHg 70%
    20:00 +19°C° 0 mm 3 mps 755 mmHg 71%
    21:00 +18°C° 0 mm 3 mps 756 mmHg 71%
    22:00 +16°C° 0 mm 3 mps 756 mmHg 72%
    23:00 +16°C° 0 mm 3 mps 756 mmHg 74%

    24 July, Tuesday

    Time Temperature Precipitation Wind Pressure Humidity
    00:00 +14°C° 0 mm 3 mps 757 mmHg 75%
    01:00 +13°C° 0 mm 3 mps 757 mmHg 77%
    02:00 +13°C° 0 mm 3 mps 757 mmHg 79%
    03:00 +13°C° 0 mm 2 mps 757 mmHg 81%
    04:00 +13°C° 0 mm 2 mps 757 mmHg 83%
    05:00 +14°C° 0 mm 2 mps 757 mmHg 80%
    06:00 +15°C° 0 mm 2 mps 758 mmHg 78%
    07:00 +17°C° 0 mm 2 mps 758 mmHg 76%
    08:00 +18°C° 0 mm 2 mps 758 mmHg 71%
    09:00 +20°C° 0 mm 2 mps 758 mmHg 65%
    10:00 +23°C° 0 mm 2 mps 758 mmHg 59%
    11:00 +24°C° 0 mm 2 mps 758 mmHg 56%
    12:00 +25°C° 0 mm 2 mps 758 mmHg 53%
    13:00 +26°C° 0 mm 2 mps 757 mmHg 50%
    14:00 +26°C° 0 mm 2 mps 757 mmHg 49%
    15:00 +26°C° 0 mm 2 mps 757 mmHg 49%
    16:00 +27°C° 0 mm 2 mps 757 mmHg 49%
    17:00 +26°C° 0 mm 1 mps 757 mmHg 54%
    18:00 +25°C° 0 mm 1 mps 757 mmHg 59%
    19:00 +23°C° 0 mm 0 mps 757 mmHg 65%
    20:00 +23°C° 0 mm 1 mps 757 mmHg 68%
    21:00 +21°C° 0 mm 1 mps 757 mmHg 72%
    22:00 +19°C° 0 mm 1 mps 757 mmHg 75%
    23:00 +19°C° 0 mm 1 mps 757 mmHg 77%
    Show more